Vorticity
3 2 2 1 2 2 3 4 5 5 6 6 6 6 7 7 9 10 11 11 12 12 11 12 12 12 11 11 12 10 10 10 9 7 6 6 5 5 6 6 6 6 8 9 6 6 7 7 6 6 6 8 14 15 8 6 6 5 6 7 4 1 1 3 3 3 4 3 2 3 4 6 6 4 4 4 7 7 6 7 2 4 8 3 -0 6 7 4
3 2 2 1 2 2 3 4 4 5 5 5 6 6 7 8 9 10 11 12 13 13 13 13 13 12 13 13 12 13 12 9 9 9 6 5 6 5 6 6 7 7 8 8 8 7 5 5 7 6 6 7 9 14 11 6 6 6 6 5 3 2 3 4 4 3 4 6 6 6 5 5 5 3 3 3 5 8 5 4 7 8 7 3 3 6 6 6
4 3 2 2 2 2 3 4 5 5 5 5 5 6 7 8 9 10 11 13 13 14 14 15 15 15 15 15 15 16 12 9 10 9 7 8 8 7 6 7 7 8 9 9 9 7 5 6 8 6 7 7 8 12 10 6 6 6 8 5 3 3 3 3 3 3 1 6 11 9 6 5 4 3 3 4 7 9 8 7 5 6 7 7 7 4 5 7
4 3 3 2 2 1 2 3 5 5 5 5 5 6 7 8 9 10 11 12 14 14 14 15 17 18 17 17 19 19 14 10 11 9 9 10 8 8 9 8 7 7 9 9 8 8 7 6 7 7 7 7 8 10 7 5 5 2 3 5 3 0 2 3 4 5 2 5 11 9 8 7 3 4 4 4 8 9 9 9 6 8 8 8 9 4 4 6
4 4 3 2 2 1 2 3 4 5 5 5 5 6 7 8 9 10 11 12 13 14 15 15 17 19 19 19 19 20 17 10 9 10 12 11 8 7 8 8 9 8 9 9 10 9 7 6 7 7 8 9 7 6 4 5 7 6 5 7 5 1 3 5 3 3 2 2 6 6 8 8 5 5 4 2 5 7 10 8 7 9 7 6 7 5 5 5
5 4 3 3 2 2 2 3 4 4 4 5 5 6 7 8 10 11 11 11 11 11 12 14 17 17 15 16 17 16 15 12 11 12 14 14 10 8 6 7 8 8 9 10 10 9 7 7 7 6 7 7 6 4 3 3 6 10 10 7 5 4 4 5 4 4 4 4 4 4 6 7 6 6 3 4 4 3 8 8 6 8 6 5 5 5 6 4
5 5 4 4 3 2 2 2 3 3 4 5 5 7 7 9 10 11 12 11 9 8 7 8 12 15 12 12 12 10 13 18 18 13 13 14 11 9 7 6 7 8 8 8 10 10 8 7 6 6 4 4 6 5 5 4 4 8 7 3 2 4 4 6 6 5 5 5 4 5 6 5 6 7 5 7 6 2 7 6 4 8 6 6 4 5 6 3
6 5 5 4 3 2 2 2 3 3 4 5 5 7 8 10 11 12 13 10 8 6 5 5 6 10 12 10 7 6 10 17 18 14 12 12 10 10 9 7 8 7 6 7 9 9 8 5 6 7 6 10 11 8 8 2 1 10 8 4 4 4 5 5 3 4 5 3 4 5 6 7 7 7 5 7 8 6 9 4 4 8 5 6 6 6 7 3
6 5 5 5 4 3 2 2 2 3 4 5 6 8 9 10 11 13 13 11 8 5 5 7 7 6 9 8 6 7 8 10 14 15 14 11 8 8 10 10 10 9 7 7 8 8 7 5 8 10 10 16 13 6 6 1 5 16 10 4 4 4 6 4 3 4 5 5 6 5 5 6 5 6 5 6 8 8 9 5 4 8 4 6 7 5 6 2
6 6 6 5 4 3 2 2 2 3 4 5 6 8 10 10 12 13 14 11 8 5 6 9 9 9 9 8 8 7 7 8 10 12 15 14 7 5 8 10 11 12 10 8 6 6 6 7 12 9 6 11 10 5 6 4 7 8 3 5 3 4 7 4 5 4 5 8 7 6 5 5 7 7 4 6 9 6 7 6 3 7 8 7 7 6 6 2
7 6 6 5 4 3 2 2 2 3 4 5 7 9 10 10 11 13 14 13 7 3 7 9 9 13 13 11 8 4 5 8 9 9 12 15 12 6 6 8 11 12 12 10 8 7 7 12 14 7 3 6 7 12 12 7 7 2 4 17 9 4 7 3 5 4 3 7 7 8 6 6 8 5 4 5 8 7 6 5 1 4 9 8 6 7 6 2
7 6 6 5 4 3 2 2 2 3 4 6 7 9 11 11 11 12 14 15 9 3 4 6 6 10 14 17 16 10 7 5 4 7 10 14 14 9 6 7 10 11 12 11 10 8 7 12 10 5 5 6 8 15 16 10 10 7 8 19 13 1 2 3 4 4 5 6 7 8 6 8 7 4 7 4 9 14 5 2 3 3 6 8 7 6 5 2
7 6 6 5 4 3 2 2 3 3 4 6 8 10 11 12 10 11 14 16 13 5 0 2 2 4 6 13 20 18 14 8 2 4 7 10 11 11 7 6 7 10 11 11 12 10 9 11 7 2 3 7 10 6 8 15 13 9 8 17 20 7 0 5 6 4 5 5 7 7 6 9 8 8 9 6 19 21 5 3 6 4 5 8 7 5 6 2
7 7 6 5 4 3 3 2 3 3 5 6 8 10 12 12 12 11 13 16 17 10 2 -1 -0 0 -1 4 13 17 19 17 11 6 5 7 9 11 9 6 5 8 11 11 11 11 11 12 8 4 0 0 6 -1 2 14 9 3 6 11 17 10 2 4 5 3 3 3 4 4 6 9 10 12 10 17 29 17 4 6 5 2 3 8 9 5 6 3
7 8 6 5 5 3 3 3 3 4 5 6 8 11 13 12 12 12 12 14 17 16 10 2 -0 1 0 0 4 7 13 19 20 15 9 6 7 9 10 9 6 6 10 11 11 11 11 13 10 9 4 -3 2 2 2 8 4 -0 4 8 9 6 3 3 3 3 4 4 3 4 7 10 15 17 13 24 29 10 7 12 9 6 -1 5 10 5 6 3
7 7 6 6 5 4 4 3 3 4 5 6 9 11 12 12 12 13 15 15 16 18 18 12 8 7 4 3 3 3 6 10 16 19 17 12 8 7 8 9 8 5 6 8 10 11 10 11 10 9 10 3 -0 -1 -2 5 7 2 2 5 5 3 4 5 2 2 5 6 9 10 5 7 20 20 12 23 24 11 18 20 16 10 -3 2 8 4 6 4
7 7 6 6 5 4 4 3 4 4 5 7 9 11 12 13 13 13 14 15 16 19 22 21 20 16 12 12 10 8 8 7 9 13 16 17 14 11 8 7 9 6 6 7 8 10 10 10 10 10 11 8 4 2 -1 1 4 1 2 5 6 7 5 5 3 1 3 2 5 8 2 5 22 33 35 43 30 12 19 16 9 12 4 6 7 5 6 3
7 7 6 6 5 4 3 3 4 4 5 7 9 11 12 13 13 11 9 10 11 14 17 17 19 19 16 17 15 13 13 12 11 11 13 17 17 16 13 10 8 7 7 7 8 10 10 9 8 10 11 11 10 9 3 -1 -1 -1 2 4 6 11 8 5 4 3 2 -3 -2 3 5 4 14 42 59 50 17 -1 14 12 4 15 11 7 6 4 6 2
7 7 6 6 5 4 4 3 4 4 6 7 9 10 12 13 11 7 6 5 5 9 11 9 11 15 13 12 12 13 13 12 13 13 12 14 15 16 16 15 13 11 9 9 10 11 12 12 10 9 11 11 9 8 4 1 2 3 4 5 4 9 10 6 3 5 6 2 2 4 10 7 1 31 51 27 0 -1 18 19 10 14 7 6 9 3 4 3
7 7 6 6 5 5 4 4 4 5 6 8 10 10 12 12 8 7 5 3 3 6 10 7 7 10 9 7 8 10 9 8 10 12 13 13 13 14 15 15 15 13 11 10 10 8 8 10 11 10 9 10 9 7 6 4 6 5 4 3 4 8 9 6 3 4 7 4 5 3 10 13 -2 20 43 21 10 17 22 18 11 11 3 7 12 2 3 4
7 7 6 6 6 5 4 4 4 5 7 7 9 11 13 9 6 7 5 3 4 5 10 10 5 6 8 6 6 7 8 8 8 10 13 12 13 14 14 14 15 16 16 13 11 10 10 9 11 10 8 10 11 10 9 7 6 3 1 -0 7 16 10 6 5 6 7 4 8 5 5 14 0 14 44 33 26 27 18 13 9 6 3 10 13 2 4 4
7 6 7 6 6 5 4 5 4 6 7 6 10 13 12 8 6 5 2 3 5 4 10 11 2 4 9 9 9 8 9 11 11 12 13 13 15 14 13 14 14 14 15 16 13 10 12 11 10 8 4 6 11 15 13 8 5 2 1 -0 7 18 9 3 5 5 7 4 9 9 4 12 1 8 37 29 21 20 10 9 10 6 3 7 10 4 7 6
7 7 7 6 6 5 5 5 4 7 6 6 11 12 11 9 6 4 1 2 5 5 10 10 4 6 9 7 7 7 8 11 12 12 11 13 17 15 13 13 12 12 11 15 16 11 13 15 14 11 5 1 5 9 8 10 14 8 2 -3 -2 10 7 2 5 4 6 4 8 9 5 10 1 7 30 17 4 11 10 9 6 6 5 1 6 8 6 2
7 7 6 6 6 5 5 5 5 7 6 6 10 11 11 9 6 5 1 1 5 6 10 12 10 13 11 8 8 8 10 13 11 10 13 15 15 16 16 13 13 16 12 13 14 10 11 15 19 17 7 4 5 7 9 9 9 8 10 5 -5 4 9 4 4 3 4 4 7 9 6 10 6 9 26 17 3 4 9 12 4 2 3 -1 4 9 5 3
7 6 7 7 6 6 5 5 6 7 5 7 10 10 10 10 7 5 3 4 6 6 10 13 12 12 8 6 7 8 12 13 11 14 18 17 13 13 15 14 17 23 22 20 16 11 10 8 14 18 11 10 6 2 5 1 4 17 22 12 -0 5 14 9 2 1 3 3 6 8 3 6 8 6 11 15 16 11 6 12 11 7 7 4 5 6 5 6
7 7 7 6 6 6 6 6 6 6 6 8 10 9 10 10 7 5 6 6 5 6 11 11 8 6 4 5 6 9 12 11 12 18 17 13 14 12 9 10 12 15 22 27 18 9 8 4 4 7 5 4 -1 0 9 13 24 30 16 9 7 6 11 13 6 0 2 3 3 7 6 6 10 8 3 3 15 20 10 6 8 7 9 10 6 4 6 6
7 7 7 6 7 7 6 7 6 5 6 8 9 10 10 9 7 8 8 5 3 7 13 11 6 4 5 6 5 6 11 12 13 18 15 11 14 12 10 13 10 11 23 33 28 16 10 11 15 17 14 9 2 3 12 22 27 14 -2 5 12 10 10 13 11 4 3 3 2 6 8 6 7 10 8 2 5 17 17 12 10 4 5 11 7 4 7 8
7 7 7 7 7 7 7 7 6 7 7 7 9 10 9 8 8 9 8 8 7 5 10 10 3 5 8 6 4 6 15 22 19 17 16 13 12 10 13 15 11 14 17 15 24 29 21 15 16 22 26 20 12 5 8 20 20 6 3 7 4 8 12 10 11 12 9 6 4 9 10 3 4 8 10 8 4 7 15 18 19 11 2 4 7 6 5 7
6 7 7 7 7 7 7 7 6 8 7 7 10 9 8 8 9 9 7 10 9 2 6 10 4 8 10 4 5 7 17 28 22 13 12 10 10 9 10 9 7 16 14 0 4 15 18 13 4 11 23 17 14 18 22 21 9 0 8 10 4 7 9 6 5 9 16 15 9 10 10 4 4 6 8 10 8 6 10 13 17 16 3 -5 0 6 5 6
6 6 7 7 7 7 7 7 7 8 7 9 10 9 8 8 8 8 5 7 8 2 6 9 4 8 9 5 9 10 19 29 22 15 12 7 9 11 10 10 8 12 12 5 1 -2 3 7 1 9 23 17 11 21 31 24 4 -6 -3 3 9 12 12 8 0 -0 9 15 14 9 8 8 6 6 7 8 8 9 10 11 13 17 14 6 5 6 6 8
6 6 7 7 7 7 7 8 7 7 8 9 11 10 8 9 8 5 5 11 10 4 6 8 5 10 12 10 11 15 24 28 18 16 16 8 9 12 10 10 11 10 7 5 7 3 -1 -1 0 7 14 17 15 17 27 30 19 5 -3 1 4 3 11 18 11 3 -7 -11 -1 5 6 9 8 8 7 4 4 5 6 8 8 10 12 14 18 14 7 8
5 6 7 7 7 7 7 8 7 7 9 9 11 10 9 10 8 5 8 9 5 6 11 11 7 12 13 8 6 7 17 20 12 18 23 13 10 11 6 10 14 10 7 9 9 7 5 1 0 -0 1 10 14 14 20 23 20 9 -2 7 11 -1 3 12 11 7 -7 -15 -5 2 3 4 4 7 7 5 6 5 6 7 5 5 2 7 28 27 8 6
3 5 7 8 8 7 7 8 8 8 9 8 10 10 9 10 7 5 7 5 4 9 12 14 17 17 8 6 11 6 3 4 2 16 23 5 6 15 8 12 19 6 3 15 11 4 12 16 4 -7 1 12 10 13 22 19 16 7 -10 -0 13 4 2 5 10 20 19 12 11 7 3 1 -1 5 7 6 8 5 6 7 6 9 4 4 27 31 8 4
2 3 6 9 9 9 8 8 8 9 9 8 9 9 8 10 8 7 7 7 12 15 12 10 16 10 -12 -9 10 6 -1 5 7 19 18 -5 3 17 5 7 17 6 2 15 13 0 4 17 11 -4 1 9 5 12 22 17 15 7 -11 -4 8 3 6 9 9 19 22 20 22 16 10 8 2 2 6 6 5 4 6 7 5 9 9 6 20 25 10 5
2 2 4 8 11 10 9 9 9 9 8 8 9 7 7 8 9 7 5 5 11 18 14 5 6 9 -3 -0 13 3 -3 7 12 14 4 -5 12 17 5 7 7 -1 1 8 12 6 -2 2 7 3 2 3 2 6 15 20 21 7 -4 11 21 9 7 9 5 7 7 9 20 19 11 12 9 4 4 3 3 4 6 8 5 6 9 8 13 20 16 8
1 2 3 8 11 11 10 9 9 9 9 9 8 8 9 8 6 5 4 3 9 16 15 5 4 9 5 4 7 4 6 9 12 12 -0 5 27 18 -1 -2 -3 2 13 12 8 5 1 2 6 5 0 2 10 8 10 21 18 3 2 17 26 15 5 6 12 21 15 4 13 20 13 9 10 11 7 2 6 6 2 6 7 6 8 8 9 16 19 14
2 1 3 8 12 12 10 10 11 9 9 10 9 8 9 7 4 6 9 9 9 15 21 18 10 8 10 10 6 5 5 0 5 10 -3 -4 14 14 3 -0 1 8 15 16 14 9 6 5 3 1 -6 -2 12 9 4 13 12 6 7 9 14 14 11 7 9 17 13 -0 3 16 15 5 6 14 12 6 8 6 0 4 8 9 9 7 8 11 14 16
1 0 3 8 12 12 10 10 10 11 11 11 9 8 9 11 8 7 12 11 6 14 27 23 4 -8 -1 8 11 9 1 -3 7 16 11 7 11 14 14 13 10 5 -2 2 13 20 20 8 -6 -7 -2 1 3 3 5 9 18 21 9 3 5 6 11 13 5 4 6 3 5 10 10 6 6 11 14 13 13 9 5 6 8 10 10 8 7 7 9 9
-0 0 4 9 11 11 10 9 9 11 11 9 9 10 10 11 8 5 9 8 4 12 25 22 7 -5 -8 -6 2 13 14 7 3 3 9 14 9 5 6 10 8 0 -3 2 6 12 22 23 6 -9 -0 6 -7 -1 12 4 12 29 14 2 4 -3 2 12 3 -4 0 4 9 9 8 10 7 5 8 13 15 12 8 8 10 10 9 8 7 7 10 8
-2 1 5 7 11 11 10 10 9 10 12 11 11 10 8 8 10 8 6 5 6 12 20 23 16 6 6 4 -6 -3 13 18 10 5 7 6 3 5 9 18 18 3 -4 7 17 16 15 26 25 5 10 21 -3 -6 14 4 7 30 19 1 -1 -3 2 10 7 6 6 6 9 9 9 11 6 4 5 9 15 15 9 7 10 11 8 5 5 7 9 11
-1 2 6 8 10 12 11 11 10 10 12 11 6 5 8 11 13 9 2 3 12 16 17 25 24 8 9 18 1 -16 -8 4 9 10 6 2 7 12 10 10 11 8 6 6 10 13 7 8 17 13 16 26 7 -6 12 15 12 24 22 5 -4 -1 4 1 1 10 11 7 8 8 10 10 6 6 7 7 12 14 9 6 7 10 10 7 6 7 6 9
1 3 5 7 8 11 12 10 9 10 9 8 7 9 12 9 6 6 4 5 15 19 15 26 38 26 13 12 6 -1 -5 -9 -3 5 4 7 11 10 8 3 1 10 19 13 2 1 5 5 10 16 19 21 12 -1 6 17 15 17 24 12 -5 -3 6 1 -6 -0 6 8 7 6 8 9 6 7 8 5 5 9 10 8 7 9 11 9 10 9 7 7
3 3 5 7 9 12 12 10 12 12 9 10 10 10 10 6 6 13 12 6 7 12 15 24 36 31 17 6 1 7 6 -8 -3 6 1 8 15 8 10 15 14 14 11 11 10 3 1 5 7 13 19 21 16 4 2 13 16 15 20 18 6 -2 -0 4 3 3 8 10 6 1 5 10 4 1 9 10 5 6 11 13 11 10 10 9 9 9 8 9
6 7 9 12 15 14 10 11 15 12 9 12 12 10 11 11 16 21 16 6 -1 2 12 25 29 18 14 17 9 4 7 5 12 15 -5 -5 13 16 13 11 8 9 9 14 21 12 4 7 6 7 14 20 19 10 5 10 17 19 13 12 20 13 -2 -5 0 -0 -1 5 8 1 0 10 5 -5 4 14 12 10 9 12 15 13 9 6 7 10 9 7
13 14 14 17 21 17 11 13 15 11 9 9 7 7 8 12 18 17 13 9 5 3 9 21 22 5 -0 15 12 -3 -1 3 11 19 6 -7 -3 -1 -1 3 6 10 15 19 18 14 11 8 6 8 12 18 20 15 9 10 18 26 19 10 17 21 9 -2 -2 -2 -8 -5 8 7 -3 -1 3 4 5 7 12 14 7 7 15 16 9 5 8 11 9 7
15 15 16 19 21 15 11 13 14 14 12 9 9 9 7 9 9 5 11 20 17 10 6 7 11 3 -5 7 16 8 6 6 1 6 12 6 3 4 -0 2 11 15 17 20 17 15 15 13 12 14 15 19 21 16 12 12 16 24 24 16 14 18 16 7 2 5 3 -4 3 11 8 -4 -5 9 13 3 5 11 7 6 13 17 13 8 8 8 9 10
11 13 15 19 17 11 10 12 15 15 12 13 19 17 11 10 8 6 10 12 11 12 11 7 11 14 0 -6 7 10 7 11 7 0 4 4 4 14 15 5 2 4 8 13 9 6 10 13 12 10 12 16 18 17 18 16 15 19 19 16 15 16 18 15 5 2 9 10 3 3 10 7 1 5 7 4 5 9 7 5 10 14 13 10 9 9 11 13
12 14 16 17 15 10 10 11 12 12 9 9 10 9 12 15 14 14 6 -1 6 15 21 23 18 16 8 -6 2 11 3 5 9 -1 -0 5 -2 -4 3 4 -1 -5 -3 -5 -9 -1 10 11 9 7 7 11 12 12 17 17 14 16 17 16 14 11 14 19 15 6 8 16 14 4 1 5 10 8 1 0 5 8 7 5 7 9 8 9 8 7 8 8
16 16 16 15 12 8 8 10 10 11 9 8 6 5 11 16 16 13 3 6 18 15 20 34 20 5 7 -2 -3 10 10 14 24 12 -1 4 5 -2 -5 1 5 4 2 -5 -8 7 15 9 9 9 5 10 12 7 11 20 21 19 20 21 17 13 14 20 28 27 16 10 14 15 8 5 8 7 2 2 3 10 14 8 4 7 7 6 4 1 1 -1
17 17 14 12 9 7 10 10 8 8 6 7 11 9 9 15 17 8 0 9 16 5 12 32 23 13 23 13 -3 -4 -4 3 17 17 7 1 2 4 0 -3 1 4 5 3 2 15 21 11 5 5 4 9 12 6 8 19 22 16 17 21 20 20 22 24 33 38 27 11 3 4 12 20 17 7 6 10 7 12 18 10 4 6 6 7 6 2 2 2
16 15 11 9 8 9 13 12 9 12 9 7 12 9 7 11 8 0 3 10 8 -0 4 10 3 9 23 20 12 9 3 3 5 7 13 11 6 14 13 4 5 8 7 8 9 14 18 8 -0 4 9 8 9 9 8 13 17 13 9 11 14 16 18 21 30 33 25 14 3 -4 5 22 24 16 16 18 10 5 10 11 7 4 3 8 10 6 4 10
13 12 9 8 8 10 13 13 12 15 13 8 7 4 4 8 4 3 9 9 2 1 2 1 -0 8 13 11 14 14 6 6 7 1 3 5 9 21 22 14 19 24 19 14 9 5 7 7 6 10 10 4 6 10 7 7 14 14 11 12 14 16 14 12 21 28 21 12 8 8 10 11 12 18 26 23 11 1 3 9 8 4 5 7 7 6 5 8
Height
5917 5916 5916 5916 5916 5915 5915 5915 5914 5913 5912 5911 5910 5909 5908 5906 5905 5903 5902 5900 5899 5897 5896 5894 5893 5892 5891 5891 5891 5891 5891 5891 5891 5891 5891 5891 5891 5891 5892 5891 5891 5892 5892 5892 5892 5892 5893 5893 5893 5893 5894 5895 5896 5896 5896 5898 5898 5898 5898 5898 5898 5898 5899 5899 5899 5899 5899 5899 5899 5899 5899 5898 5898 5898 5898 5898 5898 5900 5901 5901 5901 5900 5900 5901 5902 5899 5897 5898
5917 5916 5916 5916 5916 5915 5915 5914 5913 5912 5911 5910 5909 5908 5906 5905 5903 5902 5900 5898 5897 5895 5894 5893 5891 5890 5890 5889 5889 5889 5889 5889 5888 5888 5889 5889 5890 5890 5890 5890 5890 5891 5891 5891 5892 5892 5891 5891 5892 5892 5893 5893 5895 5896 5896 5897 5897 5897 5897 5897 5897 5898 5898 5899 5899 5899 5900 5899 5899 5899 5899 5899 5898 5898 5897 5897 5897 5898 5898 5899 5900 5900 5900 5901 5902 5900 5898 5898
5917 5916 5916 5916 5915 5915 5914 5914 5913 5912 5910 5909 5908 5907 5905 5903 5902 5900 5898 5897 5895 5893 5892 5891 5890 5888 5888 5887 5887 5887 5887 5886 5885 5886 5887 5888 5888 5888 5888 5888 5889 5889 5890 5890 5891 5891 5890 5891 5891 5891 5891 5892 5893 5895 5896 5896 5897 5897 5897 5896 5896 5897 5898 5899 5899 5899 5899 5899 5899 5899 5899 5898 5898 5897 5897 5897 5897 5897 5897 5898 5899 5899 5899 5900 5901 5901 5899 5898
5916 5916 5916 5915 5915 5915 5914 5913 5912 5911 5909 5908 5907 5905 5904 5902 5900 5898 5897 5895 5894 5892 5891 5889 5888 5887 5886 5885 5885 5885 5884 5883 5883 5884 5886 5886 5886 5886 5886 5887 5887 5888 5889 5889 5889 5890 5890 5890 5890 5890 5890 5891 5892 5894 5895 5895 5896 5896 5896 5896 5896 5896 5897 5898 5898 5899 5899 5899 5899 5898 5899 5898 5898 5897 5897 5897 5898 5897 5898 5898 5898 5898 5898 5898 5900 5900 5899 5897
5916 5916 5915 5915 5914 5914 5913 5912 5911 5910 5908 5907 5905 5904 5902 5900 5898 5897 5895 5894 5892 5891 5890 5888 5887 5886 5885 5884 5884 5883 5882 5881 5882 5883 5884 5884 5885 5884 5885 5885 5886 5886 5887 5888 5888 5889 5889 5889 5889 5889 5890 5890 5891 5892 5892 5893 5894 5895 5894 5894 5895 5896 5897 5897 5897 5898 5898 5898 5898 5898 5898 5898 5898 5897 5897 5898 5897 5897 5897 5897 5898 5898 5898 5898 5899 5899 5899 5898
5915 5915 5915 5914 5914 5913 5912 5911 5910 5909 5907 5906 5904 5902 5901 5899 5897 5895 5894 5892 5891 5890 5889 5888 5886 5885 5884 5884 5883 5882 5880 5880 5881 5881 5882 5883 5883 5883 5883 5884 5884 5885 5886 5887 5887 5888 5888 5888 5888 5888 5889 5889 5889 5890 5890 5891 5892 5892 5892 5894 5895 5896 5896 5896 5897 5897 5898 5898 5898 5898 5897 5897 5897 5896 5896 5897 5897 5896 5896 5896 5897 5897 5897 5897 5897 5898 5898 5898
5915 5914 5914 5914 5913 5912 5911 5910 5909 5908 5906 5904 5903 5901 5899 5898 5896 5894 5893 5891 5890 5890 5889 5887 5886 5885 5884 5883 5882 5880 5879 5880 5880 5880 5880 5881 5881 5882 5882 5882 5883 5883 5884 5885 5886 5886 5886 5887 5887 5887 5887 5888 5888 5888 5889 5890 5890 5891 5891 5892 5894 5894 5895 5896 5896 5897 5897 5897 5897 5897 5897 5896 5896 5896 5896 5897 5897 5896 5896 5895 5895 5896 5896 5897 5897 5897 5897 5898
5914 5913 5913 5913 5912 5911 5910 5909 5908 5907 5905 5903 5902 5900 5898 5896 5895 5893 5892 5891 5890 5889 5888 5887 5886 5885 5884 5883 5881 5880 5880 5880 5880 5879 5879 5880 5880 5881 5881 5881 5882 5882 5883 5884 5884 5885 5885 5885 5886 5887 5887 5888 5888 5888 5888 5888 5889 5890 5890 5891 5892 5893 5894 5895 5895 5895 5896 5896 5896 5896 5896 5896 5895 5895 5895 5895 5895 5896 5897 5895 5894 5895 5896 5896 5897 5897 5897 5898
5913 5913 5912 5912 5911 5910 5910 5908 5907 5906 5904 5902 5901 5899 5897 5895 5894 5892 5891 5890 5889 5888 5888 5887 5886 5884 5883 5882 5881 5880 5880 5879 5879 5879 5879 5879 5879 5879 5880 5880 5880 5881 5881 5882 5883 5883 5884 5884 5885 5887 5888 5888 5887 5887 5887 5887 5888 5890 5890 5890 5891 5892 5893 5894 5894 5895 5895 5896 5896 5895 5895 5895 5894 5894 5893 5893 5894 5895 5896 5895 5894 5895 5895 5896 5896 5897 5897 5898
5912 5912 5911 5911 5910 5910 5909 5908 5906 5905 5903 5901 5900 5898 5896 5894 5893 5891 5890 5889 5888 5888 5887 5886 5885 5884 5883 5882 5881 5880 5879 5879 5879 5878 5878 5878 5878 5878 5878 5879 5879 5879 5880 5880 5881 5882 5883 5884 5885 5886 5887 5886 5886 5886 5886 5886 5888 5889 5889 5889 5890 5891 5892 5893 5893 5894 5894 5895 5895 5895 5895 5894 5894 5893 5891 5891 5892 5893 5894 5894 5894 5894 5895 5895 5896 5896 5897 5898
5911 5911 5910 5910 5909 5908 5908 5906 5905 5904 5902 5900 5898 5897 5895 5893 5891 5890 5889 5888 5887 5887 5886 5885 5884 5883 5882 5881 5880 5879 5878 5878 5878 5878 5877 5877 5877 5877 5877 5878 5878 5878 5879 5879 5880 5881 5882 5884 5885 5885 5885 5885 5885 5886 5885 5886 5888 5889 5889 5889 5889 5890 5892 5893 5893 5893 5893 5894 5894 5894 5894 5893 5893 5892 5889 5889 5891 5890 5892 5893 5893 5894 5895 5895 5895 5896 5897 5897
5910 5910 5909 5909 5908 5907 5906 5905 5904 5903 5901 5899 5897 5895 5894 5892 5890 5889 5888 5887 5886 5886 5885 5884 5883 5882 5881 5880 5879 5879 5878 5877 5877 5877 5876 5876 5876 5876 5876 5877 5877 5877 5877 5878 5878 5880 5881 5883 5884 5884 5884 5884 5885 5885 5884 5884 5886 5887 5888 5889 5890 5890 5891 5892 5892 5892 5893 5893 5893 5893 5893 5892 5892 5891 5888 5887 5888 5888 5890 5892 5892 5894 5894 5894 5894 5895 5896 5896
5909 5908 5908 5907 5907 5906 5905 5904 5903 5901 5900 5898 5896 5894 5892 5891 5889 5888 5887 5885 5885 5884 5884 5883 5882 5881 5880 5879 5878 5877 5877 5876 5876 5876 5875 5875 5875 5875 5875 5876 5876 5876 5876 5876 5877 5878 5880 5881 5882 5883 5883 5883 5884 5884 5883 5883 5884 5886 5887 5888 5889 5890 5890 5891 5891 5891 5892 5892 5892 5891 5892 5891 5890 5888 5886 5885 5886 5886 5888 5890 5891 5893 5893 5893 5894 5895 5895 5895
5908 5907 5907 5906 5905 5905 5904 5903 5901 5900 5898 5897 5895 5893 5891 5889 5888 5887 5885 5884 5884 5883 5883 5882 5881 5880 5879 5878 5877 5876 5875 5875 5875 5874 5874 5874 5874 5874 5874 5874 5875 5875 5875 5875 5876 5877 5878 5880 5881 5881 5881 5882 5882 5882 5882 5882 5882 5884 5885 5887 5888 5889 5889 5890 5890 5890 5890 5890 5890 5890 5890 5890 5887 5886 5885 5884 5885 5886 5887 5888 5889 5891 5892 5893 5894 5894 5895 5895
5907 5906 5905 5905 5904 5903 5903 5901 5900 5899 5897 5896 5894 5892 5890 5888 5887 5886 5884 5883 5882 5882 5881 5881 5879 5879 5878 5877 5876 5875 5874 5873 5873 5873 5873 5873 5872 5873 5873 5873 5873 5874 5874 5874 5875 5876 5877 5878 5879 5880 5880 5881 5882 5882 5882 5882 5881 5882 5884 5885 5887 5888 5889 5889 5889 5889 5889 5889 5888 5888 5888 5887 5885 5883 5883 5883 5884 5885 5885 5886 5888 5890 5891 5892 5893 5894 5894 5894
5905 5905 5904 5903 5903 5902 5901 5900 5899 5897 5896 5894 5892 5890 5889 5887 5886 5885 5883 5882 5881 5880 5880 5879 5878 5877 5876 5876 5875 5874 5873 5872 5872 5872 5871 5871 5871 5871 5871 5872 5872 5873 5873 5873 5874 5875 5875 5877 5878 5878 5879 5880 5881 5882 5882 5882 5881 5882 5883 5884 5886 5887 5887 5887 5888 5888 5888 5887 5887 5887 5886 5885 5882 5880 5880 5881 5881 5882 5884 5885 5886 5888 5890 5892 5893 5893 5894 5895
5904 5903 5903 5902 5901 5901 5900 5899 5897 5896 5894 5893 5891 5889 5887 5886 5885 5884 5882 5881 5880 5879 5878 5878 5876 5875 5875 5874 5874 5873 5872 5871 5870 5870 5870 5870 5870 5869 5870 5870 5871 5871 5872 5872 5873 5873 5874 5875 5876 5877 5878 5879 5880 5881 5881 5881 5881 5881 5882 5883 5884 5885 5885 5886 5886 5886 5886 5886 5886 5885 5884 5882 5880 5877 5876 5875 5877 5880 5883 5884 5885 5888 5889 5891 5892 5893 5894 5894
5903 5902 5901 5901 5900 5899 5898 5897 5896 5895 5893 5891 5890 5888 5886 5885 5884 5883 5882 5881 5880 5879 5878 5877 5875 5874 5873 5873 5872 5871 5870 5869 5869 5868 5868 5868 5868 5868 5868 5868 5869 5870 5870 5871 5871 5872 5873 5874 5875 5876 5877 5878 5879 5880 5880 5879 5879 5880 5881 5882 5883 5884 5884 5884 5885 5885 5884 5884 5884 5884 5883 5881 5879 5876 5873 5872 5875 5880 5882 5883 5885 5887 5889 5891 5892 5892 5893 5894
5901 5901 5900 5899 5898 5898 5897 5896 5895 5893 5892 5890 5888 5887 5885 5884 5883 5882 5881 5880 5879 5878 5877 5876 5875 5874 5873 5872 5871 5870 5869 5868 5868 5867 5867 5866 5866 5866 5866 5866 5867 5868 5868 5869 5870 5871 5871 5872 5873 5874 5876 5877 5877 5878 5877 5877 5878 5879 5880 5881 5882 5883 5883 5884 5883 5883 5883 5883 5883 5883 5882 5881 5878 5876 5875 5875 5877 5880 5881 5883 5885 5887 5889 5891 5892 5892 5893 5894
5900 5899 5898 5898 5897 5896 5895 5894 5893 5892 5890 5889 5887 5886 5884 5883 5883 5882 5881 5880 5879 5878 5876 5875 5874 5874 5873 5872 5870 5869 5868 5867 5866 5866 5865 5865 5865 5864 5864 5865 5865 5866 5867 5867 5868 5869 5869 5870 5871 5873 5874 5874 5875 5875 5875 5875 5876 5878 5879 5880 5881 5881 5882 5882 5882 5882 5882 5882 5882 5882 5881 5880 5878 5876 5876 5877 5878 5879 5881 5883 5885 5887 5889 5891 5892 5893 5894 5894
5898 5897 5897 5896 5895 5894 5893 5893 5892 5890 5889 5887 5886 5885 5883 5882 5882 5881 5880 5880 5878 5877 5875 5874 5873 5872 5872 5871 5869 5868 5866 5866 5865 5864 5863 5863 5863 5863 5863 5863 5864 5864 5865 5865 5865 5866 5867 5868 5870 5871 5872 5873 5874 5874 5874 5874 5874 5876 5878 5878 5879 5880 5881 5881 5881 5881 5881 5881 5881 5881 5881 5880 5879 5878 5876 5877 5878 5880 5882 5884 5886 5888 5889 5891 5892 5892 5894 5896
5897 5896 5895 5894 5893 5893 5892 5891 5890 5889 5887 5886 5885 5883 5882 5881 5881 5880 5880 5879 5878 5876 5875 5874 5873 5871 5870 5869 5868 5867 5866 5865 5864 5863 5863 5862 5862 5862 5862 5862 5862 5863 5863 5863 5863 5864 5865 5866 5867 5868 5869 5871 5872 5873 5873 5872 5872 5874 5876 5877 5878 5879 5880 5880 5880 5879 5879 5880 5880 5880 5881 5880 5880 5879 5879 5879 5880 5882 5883 5885 5886 5887 5889 5890 5892 5892 5894 5896
5895 5894 5893 5893 5892 5891 5890 5889 5888 5887 5886 5884 5883 5882 5882 5881 5880 5879 5879 5878 5877 5876 5875 5873 5873 5872 5870 5868 5867 5866 5865 5864 5863 5863 5862 5861 5861 5860 5860 5860 5861 5861 5861 5861 5861 5862 5863 5864 5865 5866 5867 5868 5869 5870 5870 5870 5870 5871 5873 5875 5877 5878 5878 5878 5878 5878 5878 5879 5880 5880 5880 5880 5880 5880 5880 5881 5881 5883 5884 5886 5886 5887 5888 5889 5891 5892 5893 5895
5894 5893 5892 5891 5890 5889 5888 5888 5887 5885 5884 5883 5882 5881 5880 5880 5879 5878 5878 5877 5876 5875 5873 5872 5871 5870 5869 5867 5866 5865 5864 5863 5862 5861 5860 5860 5859 5859 5858 5859 5860 5860 5860 5860 5860 5861 5862 5863 5864 5865 5865 5866 5867 5867 5867 5868 5869 5870 5871 5873 5875 5876 5877 5877 5877 5877 5877 5878 5879 5880 5880 5879 5880 5880 5881 5881 5882 5883 5885 5886 5887 5887 5888 5889 5890 5891 5892 5894
5892 5891 5890 5889 5888 5888 5887 5886 5885 5884 5882 5881 5880 5879 5879 5878 5878 5877 5877 5876 5875 5874 5872 5871 5870 5868 5867 5866 5865 5864 5863 5862 5860 5859 5859 5858 5857 5857 5857 5858 5859 5860 5859 5858 5859 5860 5861 5862 5863 5863 5864 5864 5865 5864 5865 5867 5870 5870 5871 5872 5873 5874 5875 5875 5875 5876 5876 5877 5878 5879 5879 5879 5880 5880 5881 5882 5882 5883 5884 5885 5886 5887 5888 5889 5890 5891 5892 5894
5891 5889 5888 5888 5887 5886 5885 5884 5883 5882 5881 5880 5879 5878 5877 5876 5876 5876 5876 5875 5874 5872 5871 5870 5868 5866 5865 5865 5864 5863 5862 5860 5860 5859 5858 5857 5856 5856 5856 5857 5857 5858 5858 5858 5857 5858 5859 5860 5861 5861 5862 5862 5863 5864 5865 5868 5870 5870 5870 5870 5871 5872 5873 5873 5874 5875 5875 5876 5877 5878 5879 5879 5879 5880 5880 5881 5882 5883 5883 5884 5886 5887 5888 5889 5890 5890 5891 5893
5889 5888 5887 5886 5885 5884 5883 5882 5881 5880 5879 5878 5877 5876 5875 5875 5874 5874 5874 5874 5872 5871 5870 5869 5867 5865 5865 5864 5863 5862 5861 5859 5858 5857 5857 5856 5856 5856 5856 5856 5856 5856 5857 5858 5858 5857 5858 5859 5861 5862 5862 5863 5864 5865 5866 5867 5867 5867 5868 5869 5869 5869 5871 5872 5872 5873 5874 5875 5876 5877 5878 5878 5878 5879 5879 5880 5881 5881 5882 5883 5884 5886 5887 5889 5889 5890 5891 5892
5887 5886 5885 5884 5883 5882 5881 5880 5879 5878 5877 5876 5875 5874 5874 5873 5872 5871 5871 5871 5871 5870 5868 5867 5866 5864 5863 5862 5861 5860 5859 5858 5856 5856 5855 5855 5855 5855 5855 5856 5855 5855 5857 5858 5857 5857 5858 5860 5861 5861 5862 5863 5864 5864 5865 5866 5865 5865 5866 5866 5867 5868 5869 5870 5870 5871 5872 5873 5875 5876 5877 5878 5878 5878 5879 5879 5880 5880 5881 5881 5883 5884 5886 5887 5888 5889 5890 5891
5885 5884 5883 5882 5881 5880 5879 5878 5878 5876 5875 5874 5874 5873 5872 5871 5870 5869 5869 5869 5869 5868 5867 5866 5865 5863 5861 5860 5860 5859 5858 5856 5855 5855 5855 5855 5855 5855 5855 5855 5855 5856 5856 5856 5856 5857 5858 5859 5859 5860 5860 5861 5862 5862 5863 5864 5864 5863 5863 5864 5865 5866 5867 5868 5869 5869 5870 5872 5873 5874 5876 5876 5877 5878 5878 5879 5879 5880 5880 5880 5881 5882 5884 5885 5887 5888 5889 5890
5883 5882 5881 5880 5879 5878 5877 5877 5876 5875 5874 5873 5872 5871 5870 5869 5868 5867 5866 5866 5866 5865 5865 5864 5863 5862 5861 5860 5859 5859 5857 5855 5854 5854 5854 5854 5855 5855 5854 5854 5855 5855 5855 5855 5856 5857 5857 5857 5858 5858 5859 5860 5860 5861 5861 5862 5862 5862 5862 5862 5863 5864 5865 5866 5867 5868 5869 5871 5872 5873 5874 5875 5876 5877 5877 5878 5879 5879 5880 5880 5881 5881 5882 5884 5885 5886 5887 5888
5881 5880 5879 5878 5877 5876 5875 5874 5874 5873 5872 5871 5870 5870 5868 5867 5866 5865 5864 5864 5864 5863 5862 5862 5861 5860 5859 5859 5859 5857 5855 5854 5854 5853 5853 5854 5854 5854 5854 5854 5854 5854 5854 5855 5855 5855 5856 5856 5856 5857 5858 5858 5859 5860 5861 5861 5861 5861 5862 5862 5863 5864 5864 5864 5865 5866 5868 5870 5871 5871 5872 5874 5875 5876 5876 5877 5878 5878 5879 5880 5880 5881 5882 5882 5883 5884 5886 5887
5879 5878 5877 5876 5875 5874 5873 5872 5872 5871 5870 5870 5869 5868 5867 5866 5864 5863 5862 5862 5861 5860 5860 5859 5860 5859 5857 5857 5856 5855 5854 5854 5854 5853 5853 5854 5853 5853 5853 5854 5854 5854 5854 5854 5855 5855 5856 5855 5856 5856 5857 5858 5858 5859 5860 5860 5860 5861 5861 5862 5863 5864 5863 5863 5863 5864 5866 5868 5869 5870 5871 5873 5875 5875 5875 5876 5877 5877 5878 5879 5880 5880 5881 5881 5881 5883 5885 5886
5876 5875 5874 5873 5873 5872 5871 5870 5870 5869 5868 5868 5867 5866 5865 5864 5862 5861 5860 5860 5860 5859 5858 5857 5857 5857 5856 5854 5854 5853 5853 5854 5854 5854 5853 5853 5853 5852 5852 5853 5853 5853 5853 5853 5854 5855 5855 5855 5855 5855 5856 5857 5857 5858 5859 5859 5859 5860 5860 5860 5862 5862 5862 5863 5863 5864 5865 5866 5867 5868 5869 5871 5873 5874 5875 5875 5876 5877 5877 5878 5878 5879 5880 5880 5880 5882 5883 5885
5873 5873 5872 5871 5870 5869 5869 5868 5867 5867 5867 5866 5865 5864 5863 5862 5861 5860 5859 5859 5859 5857 5856 5857 5857 5857 5856 5855 5854 5854 5853 5853 5853 5853 5853 5852 5852 5852 5851 5851 5851 5851 5851 5852 5853 5854 5854 5853 5854 5854 5854 5856 5857 5857 5858 5858 5858 5859 5858 5858 5860 5861 5861 5862 5863 5863 5864 5864 5864 5866 5867 5868 5871 5872 5873 5874 5875 5876 5876 5877 5877 5878 5879 5879 5880 5881 5883 5884
5870 5870 5869 5868 5868 5867 5866 5865 5865 5865 5864 5864 5863 5862 5861 5860 5859 5858 5858 5857 5857 5856 5855 5857 5858 5857 5856 5855 5854 5854 5854 5853 5853 5852 5852 5852 5852 5852 5851 5850 5850 5850 5851 5852 5853 5854 5853 5852 5852 5853 5854 5855 5856 5856 5857 5857 5858 5858 5858 5858 5859 5859 5860 5861 5862 5862 5862 5862 5862 5863 5864 5866 5868 5870 5871 5872 5873 5875 5875 5875 5875 5876 5877 5878 5879 5880 5882 5884
5867 5867 5866 5865 5865 5864 5863 5863 5862 5862 5862 5861 5861 5860 5859 5858 5857 5857 5856 5855 5855 5855 5854 5855 5857 5856 5854 5853 5853 5853 5854 5854 5853 5852 5852 5851 5852 5852 5851 5850 5850 5850 5850 5851 5852 5852 5852 5852 5852 5852 5852 5853 5854 5855 5855 5855 5855 5855 5857 5858 5857 5857 5858 5858 5859 5860 5860 5860 5860 5861 5862 5864 5866 5867 5869 5870 5871 5873 5874 5874 5874 5875 5875 5876 5878 5879 5881 5883
5864 5864 5863 5862 5862 5861 5860 5860 5859 5859 5859 5859 5858 5857 5857 5856 5854 5854 5855 5854 5854 5854 5852 5854 5856 5855 5852 5851 5852 5853 5853 5853 5852 5852 5852 5852 5852 5851 5850 5850 5850 5849 5849 5850 5850 5851 5851 5852 5851 5851 5851 5851 5851 5852 5851 5851 5851 5851 5853 5854 5854 5855 5856 5856 5856 5857 5858 5858 5858 5859 5860 5862 5864 5865 5866 5867 5868 5870 5872 5873 5873 5873 5874 5875 5877 5878 5879 5881
5860 5860 5860 5859 5858 5857 5857 5857 5856 5856 5856 5856 5855 5855 5855 5854 5852 5852 5853 5853 5853 5852 5851 5851 5853 5853 5851 5850 5851 5852 5852 5852 5850 5851 5851 5851 5851 5850 5849 5849 5849 5847 5847 5848 5849 5849 5850 5850 5850 5849 5850 5850 5849 5850 5850 5849 5849 5850 5850 5851 5851 5853 5854 5854 5854 5855 5855 5856 5857 5857 5858 5860 5861 5862 5863 5864 5864 5866 5868 5870 5871 5872 5872 5873 5874 5875 5876 5878
5857 5857 5856 5855 5855 5854 5854 5853 5853 5854 5853 5853 5852 5852 5852 5852 5850 5849 5850 5851 5850 5850 5849 5849 5849 5850 5850 5850 5850 5850 5850 5850 5849 5849 5849 5849 5849 5848 5848 5848 5848 5846 5845 5846 5847 5847 5848 5849 5848 5848 5849 5849 5848 5848 5848 5848 5848 5849 5849 5849 5849 5851 5851 5852 5852 5853 5854 5855 5855 5855 5856 5857 5859 5860 5861 5861 5861 5862 5864 5866 5868 5869 5870 5870 5871 5872 5873 5875
5853 5853 5852 5851 5851 5850 5850 5850 5850 5850 5850 5850 5850 5849 5849 5849 5848 5847 5847 5848 5847 5847 5847 5847 5846 5847 5849 5849 5849 5848 5848 5849 5848 5848 5847 5847 5847 5847 5846 5847 5847 5845 5845 5845 5845 5846 5847 5847 5847 5847 5848 5848 5847 5846 5846 5847 5847 5847 5848 5847 5847 5849 5850 5850 5850 5850 5851 5851 5852 5853 5854 5855 5856 5857 5858 5859 5859 5860 5862 5864 5865 5866 5867 5868 5868 5869 5870 5872
5849 5849 5849 5847 5846 5846 5847 5847 5847 5847 5847 5847 5846 5846 5847 5846 5846 5845 5844 5845 5845 5844 5844 5845 5844 5845 5847 5848 5848 5848 5848 5848 5847 5846 5845 5845 5845 5845 5845 5845 5845 5844 5844 5844 5844 5844 5845 5846 5846 5845 5846 5847 5846 5844 5844 5845 5845 5845 5846 5845 5846 5847 5848 5849 5849 5848 5849 5849 5849 5850 5850 5852 5853 5854 5855 5857 5857 5858 5860 5861 5863 5864 5864 5865 5866 5866 5867 5869
5843 5845 5846 5843 5841 5842 5843 5843 5844 5844 5843 5843 5843 5843 5844 5843 5843 5843 5842 5843 5844 5842 5842 5842 5842 5843 5846 5847 5846 5846 5846 5846 5845 5844 5843 5842 5842 5843 5843 5843 5843 5842 5841 5842 5842 5842 5843 5843 5843 5843 5843 5844 5844 5842 5842 5843 5844 5844 5844 5844 5845 5845 5846 5847 5847 5847 5847 5848 5848 5848 5848 5849 5851 5852 5854 5855 5856 5857 5858 5859 5861 5861 5862 5863 5863 5864 5866 5867
5837 5839 5841 5839 5838 5839 5840 5840 5840 5840 5839 5840 5840 5840 5840 5840 5840 5840 5840 5840 5840 5840 5840 5840 5840 5842 5845 5845 5844 5845 5845 5844 5844 5843 5842 5841 5840 5840 5841 5841 5840 5839 5839 5839 5840 5840 5841 5841 5841 5841 5841 5841 5841 5840 5840 5841 5841 5842 5842 5842 5843 5843 5843 5844 5845 5845 5845 5846 5846 5846 5847 5847 5849 5850 5851 5853 5854 5855 5856 5857 5858 5859 5860 5861 5862 5862 5863 5864
5832 5833 5833 5833 5834 5835 5836 5836 5836 5836 5835 5836 5837 5837 5837 5838 5838 5838 5838 5837 5836 5837 5838 5838 5839 5841 5842 5842 5843 5843 5843 5842 5843 5842 5841 5841 5840 5839 5839 5838 5837 5836 5836 5837 5838 5838 5839 5839 5839 5839 5839 5839 5839 5839 5838 5838 5838 5838 5838 5839 5840 5841 5841 5841 5842 5843 5843 5843 5844 5844 5845 5845 5846 5847 5848 5850 5851 5853 5854 5855 5856 5857 5858 5859 5859 5860 5860 5860
5827 5827 5826 5827 5830 5832 5832 5832 5832 5832 5832 5833 5833 5833 5835 5836 5835 5836 5836 5834 5833 5834 5835 5836 5838 5838 5838 5839 5840 5840 5840 5840 5841 5840 5840 5840 5839 5837 5836 5836 5835 5834 5834 5835 5835 5836 5837 5837 5837 5837 5837 5837 5837 5837 5836 5835 5835 5835 5835 5835 5836 5838 5839 5839 5839 5841 5841 5841 5842 5842 5843 5843 5844 5845 5846 5848 5849 5851 5852 5853 5854 5855 5856 5856 5856 5856 5856 5857
5822 5821 5821 5823 5827 5828 5827 5828 5829 5828 5828 5829 5830 5830 5831 5832 5832 5832 5833 5832 5831 5831 5833 5834 5836 5836 5836 5837 5837 5838 5838 5838 5838 5838 5838 5837 5836 5834 5834 5834 5833 5833 5833 5833 5833 5834 5835 5835 5835 5835 5835 5835 5834 5834 5834 5833 5832 5832 5832 5832 5833 5834 5835 5836 5837 5838 5838 5838 5839 5840 5841 5842 5842 5844 5846 5847 5848 5848 5849 5851 5852 5852 5853 5853 5853 5853 5853 5854
5817 5816 5817 5821 5823 5822 5822 5824 5825 5825 5825 5826 5827 5827 5828 5829 5829 5829 5830 5830 5829 5830 5831 5832 5834 5835 5835 5835 5835 5835 5836 5836 5835 5835 5835 5835 5834 5832 5831 5832 5831 5831 5831 5831 5831 5832 5833 5833 5833 5833 5833 5833 5832 5832 5831 5830 5830 5830 5829 5829 5829 5830 5831 5832 5833 5834 5835 5835 5836 5838 5839 5840 5841 5843 5845 5845 5846 5847 5847 5848 5848 5849 5850 5850 5850 5851 5850 5851
5813 5813 5815 5818 5819 5818 5818 5819 5820 5821 5821 5822 5824 5824 5825 5826 5826 5826 5827 5826 5826 5827 5828 5829 5831 5833 5833 5831 5832 5833 5833 5833 5833 5833 5833 5832 5832 5832 5831 5830 5830 5829 5829 5830 5830 5830 5831 5831 5831 5831 5831 5831 5830 5830 5829 5828 5827 5827 5827 5826 5827 5827 5827 5828 5829 5830 5831 5832 5833 5835 5838 5839 5839 5841 5843 5843 5844 5844 5844 5844 5845 5845 5846 5847 5848 5848 5849 5849
5809 5809 5811 5813 5814 5814 5813 5813 5815 5817 5818 5819 5821 5821 5822 5823 5823 5823 5824 5824 5824 5825 5826 5827 5829 5830 5830 5830 5830 5831 5831 5831 5831 5830 5830 5830 5831 5831 5831 5830 5830 5828 5828 5829 5829 5829 5829 5829 5829 5830 5829 5829 5828 5827 5827 5826 5825 5824 5824 5824 5824 5824 5824 5824 5824 5825 5827 5829 5831 5833 5835 5836 5838 5839 5840 5840 5841 5842 5841 5842 5843 5843 5844 5844 5845 5846 5847 5848
5805 5805 5806 5808 5809 5810 5809 5809 5811 5812 5814 5816 5817 5818 5818 5819 5820 5819 5819 5821 5822 5822 5823 5826 5827 5828 5829 5829 5828 5829 5829 5828 5828 5827 5827 5828 5828 5828 5829 5829 5829 5828 5827 5826 5827 5828 5828 5828 5827 5828 5827 5827 5826 5825 5825 5824 5823 5822 5822 5822 5822 5821 5820 5820 5819 5820 5822 5825 5827 5830 5832 5833 5835 5836 5836 5837 5838 5839 5840 5840 5841 5842 5842 5842 5843 5844 5844 5845
5801 5801 5802 5803 5805 5806 5806 5806 5807 5809 5811 5812 5813 5813 5813 5814 5815 5814 5814 5817 5820 5820 5821 5823 5824 5824 5826 5826 5825 5827 5827 5825 5824 5824 5825 5826 5826 5826 5826 5826 5826 5826 5825 5824 5824 5826 5827 5826 5825 5826 5825 5824 5824 5824 5823 5822 5822 5821 5820 5820 5819 5819 5818 5817 5817 5817 5819 5821 5824 5827 5829 5830 5831 5832 5833 5834 5836 5837 5838 5839 5840 5840 5841 5841 5841 5842 5842 5842
5797 5797 5798 5799 5801 5802 5802 5803 5804 5806 5807 5807 5807 5807 5808 5809 5809 5810 5811 5813 5815 5817 5817 5818 5820 5820 5822 5822 5823 5824 5824 5821 5821 5821 5822 5823 5823 5823 5824 5824 5824 5825 5824 5823 5823 5824 5824 5824 5824 5824 5823 5823 5822 5822 5822 5821 5820 5819 5819 5818 5817 5817 5816 5816 5816 5817 5818 5819 5821 5823 5825 5826 5828 5829 5831 5832 5833 5835 5836 5837 5838 5839 5839 5839 5839 5839 5840 5840